Time,TemperatureF,DewpointF,PressureIn,WindDirection,WindDirectionDegrees,WindSpeedMPH,WindSpeedGustMPH,Humidity,HourlyPrecipIn,Conditions,Clouds,dailyrainin,SoftwareType,DateUTC
2013-03-12 00:02:00,38.0,33.0,-100.00,West,271,0.0,1.0,83,0.00,,,1.60,,2013-03-12 05:02:00,
2013-03-12 00:12:00,38.0,33.0,-100.00,West,271,0.0,1.0,83,0.00,,,1.60,,2013-03-12 05:12:00,
2013-03-12 00:22:00,38.0,33.0,19.86,West,271,0.0,2.0,83,0.00,,,1.60,,2013-03-12 05:22:00,
2013-03-12 00:32:00,38.0,33.0,-100.00,West,266,0.0,2.0,83,0.00,,,1.60,,2013-03-12 05:32:00,
2013-03-12 00:42:00,38.0,33.0,-100.00,West,266,0.0,2.0,83,0.00,,,1.60,,2013-03-12 05:42:00,
2013-03-12 00:52:00,38.0,33.0,9.81,West,281,0.0,4.0,81,0.00,,,1.60,,2013-03-12 05:52:00,
2013-03-12 01:02:00,38.0,33.0,-100.00,NNW,329,0.0,1.0,82,0.00,,,1.60,,2013-03-12 06:02:00,
2013-03-12 01:12:00,38.0,33.0,-100.00,NNW,329,0.0,1.0,82,0.00,,,1.60,,2013-03-12 06:12:00,
2013-03-12 01:22:00,37.0,32.0,-100.00,ENE,57,0.0,4.0,82,0.00,,,1.60,,2013-03-12 06:22:00,
2013-03-12 01:32:00,37.0,32.0,3.30,NE,51,0.0,1.0,82,0.00,,,1.60,,2013-03-12 06:32:00,
2013-03-12 01:42:00,37.0,32.0,3.30,NE,51,0.0,1.0,82,0.00,,,1.60,,2013-03-12 06:42:00,
2013-03-12 01:52:00,36.0,31.0,3.30,NE,51,0.0,0.0,83,0.00,,,1.60,,2013-03-12 06:52:00,
2013-03-12 02:02:00,35.0,31.0,3.30,NE,51,0.0,0.0,84,0.00,,,1.60,,2013-03-12 07:02:00,
2013-03-12 02:12:00,35.0,31.0,3.30,NE,51,0.0,0.0,84,0.00,,,1.60,,2013-03-12 07:12:00,
2013-03-12 02:22:00,35.0,31.0,3.30,NE,51,0.0,0.0,86,0.00,,,1.60,,2013-03-12 07:22:00,
2013-03-12 02:32:00,34.0,30.0,3.30,NE,51,0.0,0.0,86,0.00,,,1.60,,2013-03-12 07:32:00,
2013-03-12 02:42:00,34.0,30.0,3.30,NE,51,0.0,0.0,86,0.00,,,1.60,,2013-03-12 07:42:00,
2013-03-12 02:52:00,34.0,31.0,3.30,NE,51,0.0,0.0,87,0.00,,,1.60,,2013-03-12 07:52:00,
2013-03-12 03:02:00,33.0,30.0,3.30,NE,51,0.0,0.0,88,0.00,,,1.60,,2013-03-12 08:02:00,
2013-03-12 03:12:00,33.0,30.0,3.30,NE,51,0.0,0.0,88,0.00,,,1.60,,2013-03-12 08:12:00,
2013-03-12 03:22:00,33.0,30.0,3.30,NE,51,0.0,0.0,88,0.00,,,1.60,,2013-03-12 08:22:00,
2013-03-12 03:32:00,32.0,29.0,3.30,NE,51,0.0,1.0,90,0.00,,,1.60,,2013-03-12 08:32:00,
2013-03-12 03:42:00,32.0,29.0,3.30,NE,51,0.0,1.0,90,0.00,,,1.60,,2013-03-12 08:42:00,
2013-03-12 03:52:00,32.0,29.0,3.30,NE,51,0.0,0.0,90,0.00,,,1.60,,2013-03-12 08:52:00,
2013-03-12 04:03:00,32.0,30.0,3.30,NE,51,0.0,0.0,91,0.00,,,1.60,,2013-03-12 09:03:00,
2013-03-12 04:12:00,32.0,30.0,3.30,NE,51,0.0,0.0,91,0.00,,,1.60,,2013-03-12 09:12:00,
2013-03-12 04:22:00,32.0,29.0,3.30,NE,51,0.0,1.0,90,0.00,,,1.58,,2013-03-12 09:22:00,
2013-03-12 04:32:00,31.0,29.0,3.30,NE,51,0.0,0.0,91,0.00,,,1.58,,2013-03-12 09:32:00,
2013-03-12 04:42:00,31.0,29.0,3.30,NE,51,0.0,0.0,91,0.00,,,1.58,,2013-03-12 09:42:00,
2013-03-12 04:52:00,31.0,29.0,9.51,NE,49,0.0,0.0,92,0.00,,,1.58,,2013-03-12 09:52:00,
2013-03-12 05:02:00,31.0,29.0,3.30,NE,49,0.0,0.0,92,0.00,,,1.58,,2013-03-12 10:02:00,
2013-03-12 05:12:00,31.0,29.0,3.30,NE,49,0.0,0.0,92,0.00,,,1.58,,2013-03-12 10:12:00,
2013-03-12 05:22:00,31.0,29.0,18.52,NE,49,0.0,0.0,92,0.00,,,1.46,,2013-03-12 10:22:00,
2013-03-12 05:32:00,31.0,29.0,29.84,NE,49,0.0,0.0,91,0.00,,,1.46,,2013-03-12 10:32:00,
2013-03-12 05:42:00,31.0,29.0,29.84,NE,49,0.0,0.0,91,0.00,,,1.46,,2013-03-12 10:42:00,
2013-03-12 05:52:00,30.0,28.0,3.42,NE,49,0.0,0.0,92,0.00,,,1.46,,2013-03-12 10:52:00,
2013-03-12 06:02:00,30.0,28.0,3.30,NE,49,0.0,0.0,91,0.00,,,1.46,,2013-03-12 11:02:00,
2013-03-12 06:12:00,30.0,28.0,3.30,NE,49,0.0,0.0,91,0.00,,,1.46,,2013-03-12 11:12:00,
2013-03-12 06:22:00,29.0,27.0,3.30,NE,49,0.0,0.0,92,0.00,,,1.33,,2013-03-12 11:22:00,
2013-03-12 06:32:00,29.0,27.0,-100.00,NE,49,0.0,0.0,92,0.00,,,1.33,,2013-03-12 11:32:00,
2013-03-12 06:42:00,29.0,27.0,-100.00,NE,49,0.0,0.0,92,0.00,,,1.33,,2013-03-12 11:42:00,
2013-03-12 06:52:00,29.0,27.0,3.35,NE,49,0.0,0.0,92,0.00,,,1.33,,2013-03-12 11:52:00,
2013-03-12 07:02:00,29.0,27.0,3.42,NE,49,0.0,0.0,92,0.00,,,1.33,,2013-03-12 12:02:00,
2013-03-12 07:12:00,29.0,27.0,3.42,NE,49,0.0,0.0,92,0.00,,,1.33,,2013-03-12 12:12:00,
2013-03-12 07:22:00,29.0,27.0,3.30,NE,40,0.0,0.0,92,0.00,,,1.20,,2013-03-12 12:22:00,
2013-03-12 07:32:00,28.0,26.0,3.30,NNW,348,0.0,0.0,93,0.00,,,1.20,,2013-03-12 12:32:00,
2013-03-12 07:42:00,28.0,26.0,3.30,NNW,348,0.0,0.0,93,0.00,,,1.20,,2013-03-12 12:42:00,
2013-03-12 07:52:00,29.0,27.0,3.30,WNW,302,0.0,0.0,93,0.00,,,1.20,,2013-03-12 12:52:00,
2013-03-12 08:02:00,30.0,28.0,3.30,NE,51,0.0,0.0,94,0.00,,,1.20,,2013-03-12 13:02:00,
2013-03-12 08:12:00,30.0,28.0,3.30,NE,51,0.0,0.0,94,0.00,,,1.20,,2013-03-12 13:12:00,
2013-03-12 08:22:00,31.0,30.0,1.81,NE,36,0.0,1.0,95,0.00,,,1.06,,2013-03-12 13:22:00,
2013-03-12 08:32:00,33.0,31.0,3.30,West,276,0.0,2.0,94,0.00,,,1.06,,2013-03-12 13:32:00,
2013-03-12 08:42:00,33.0,31.0,3.30,West,276,0.0,2.0,94,0.00,,,1.06,,2013-03-12 13:42:00,
2013-03-12 08:52:00,34.0,32.0,3.30,West,266,0.0,1.0,94,0.00,,,1.06,,2013-03-12 13:52:00,
2013-03-12 09:02:00,36.0,34.0,3.30,WNW,296,0.0,3.0,91,0.00,,,1.06,,2013-03-12 14:02:00,
2013-03-12 09:12:00,36.0,34.0,3.30,WNW,296,0.0,3.0,91,0.00,,,1.06,,2013-03-12 14:12:00,
2013-03-12 09:22:00,38.0,35.0,3.35,East,82,0.0,3.0,88,0.00,,,0.89,,2013-03-12 14:22:00,
2013-03-12 09:32:00,39.0,35.0,3.30,ENE,65,1.0,5.0,87,0.00,,,0.89,,2013-03-12 14:32:00,
2013-03-12 09:42:00,39.0,35.0,3.30,ENE,65,1.0,5.0,87,0.00,,,0.89,,2013-03-12 14:42:00,
2013-03-12 09:53:00,41.0,37.0,3.42,NE,42,1.0,5.0,84,0.00,,,0.89,,2013-03-12 14:53:00,
2013-03-12 10:02:00,41.0,35.0,3.40,WNW,286,1.0,3.0,80,0.00,,,0.89,,2013-03-12 15:02:00,
2013-03-12 10:12:00,41.0,35.0,3.40,WNW,286,1.0,3.0,80,0.00,,,0.89,,2013-03-12 15:12:00,
2013-03-12 10:22:00,41.0,35.0,3.30,WNW,300,2.0,9.0,80,0.00,,,0.72,,2013-03-12 15:22:00,
2013-03-12 10:32:00,42.0,36.0,1.75,NNW,340,1.0,4.0,79,0.00,,,0.72,,2013-03-12 15:32:00,
2013-03-12 10:42:00,42.0,36.0,1.75,NNW,340,1.0,4.0,79,0.00,,,0.72,,2013-03-12 15:42:00,
2013-03-12 10:53:00,43.0,35.0,3.30,WNW,284,2.0,7.0,74,0.00,,,0.72,,2013-03-12 15:53:00,
2013-03-12 11:02:00,44.0,37.0,3.30,WNW,294,0.0,7.0,77,0.00,,,0.72,,2013-03-12 16:02:00,
2013-03-12 11:12:00,44.0,37.0,3.30,WNW,294,0.0,7.0,77,0.00,,,0.72,,2013-03-12 16:12:00,
2013-03-12 11:22:00,44.0,34.0,3.30,West,274,2.0,8.0,69,0.00,,,0.57,,2013-03-12 16:22:00,
2013-03-12 11:33:00,45.0,37.0,3.30,WSW,254,0.0,9.0,72,0.00,,,0.57,,2013-03-12 16:33:00,
2013-03-12 11:42:00,45.0,37.0,3.30,WSW,254,0.0,9.0,72,0.00,,,0.57,,2013-03-12 16:42:00,
2013-03-12 11:53:00,46.0,37.0,3.30,NE,38,0.0,5.0,71,0.00,,,0.57,,2013-03-12 16:53:00,
2013-03-12 12:02:00,47.0,37.0,3.30,West,265,1.0,4.0,68,0.00,,,0.57,,2013-03-12 17:02:00,
2013-03-12 12:12:00,47.0,37.0,3.30,West,265,1.0,4.0,68,0.00,,,0.57,,2013-03-12 17:12:00,
2013-03-12 12:22:00,48.0,36.0,3.30,West,267,1.0,5.0,64,0.00,,,0.42,,2013-03-12 17:22:00,
2013-03-12 12:33:00,49.0,37.0,3.30,SSE,153,1.0,3.0,63,0.00,,,0.42,,2013-03-12 17:33:00,
2013-03-12 12:43:00,49.0,37.0,3.30,SSE,153,1.0,3.0,63,0.00,,,0.42,,2013-03-12 17:43:00,
2013-03-12 12:53:00,50.0,38.0,3.30,WNW,284,4.0,7.0,62,0.00,,,0.42,,2013-03-12 17:53:00,
2013-03-12 13:02:00,50.0,36.0,3.30,WNW,288,2.0,10.0,59,0.00,,,0.42,,2013-03-12 18:02:00,
2013-03-12 13:13:00,50.0,38.0,3.30,ENE,78,0.0,4.0,64,0.00,,,0.28,,2013-03-12 18:13:00,
2013-03-12 13:23:00,50.0,38.0,3.30,ENE,78,0.0,4.0,64,0.00,,,0.28,,2013-03-12 18:23:00,
2013-03-12 13:33:00,51.0,35.0,3.30,WNW,292,3.0,5.0,55,0.00,,,0.28,,2013-03-12 18:33:00,
2013-03-12 13:42:00,51.0,35.0,3.30,WNW,292,3.0,5.0,55,0.00,,,0.28,,2013-03-12 18:42:00,
2013-03-12 13:53:00,53.0,37.0,3.30,WNW,292,1.0,5.0,55,0.00,,,0.28,,2013-03-12 18:53:00,
2013-03-12 14:03:00,53.0,37.0,3.30,WSW,257,2.0,7.0,54,0.00,,,0.28,,2013-03-12 19:03:00,
2013-03-12 14:13:00,53.0,37.0,3.30,WSW,257,2.0,7.0,54,0.00,,,0.28,,2013-03-12 19:13:00,
2013-03-12 14:22:00,53.0,37.0,3.30,WNW,297,4.0,8.0,54,0.00,,,0.17,,2013-03-12 19:22:00,
2013-03-12 14:33:00,54.0,39.0,3.30,West,261,2.0,8.0,56,0.00,,,0.17,,2013-03-12 19:33:00,
2013-03-12 14:43:00,54.0,39.0,3.30,West,261,2.0,8.0,56,0.00,,,0.17,,2013-03-12 19:43:00,
2013-03-12 14:53:00,54.0,37.0,3.42,West,267,1.0,12.0,53,0.00,,,0.17,,2013-03-12 19:53:00,
2013-03-12 15:02:00,56.0,40.0,1.80,West,279,0.0,8.0,55,0.00,,,0.17,,2013-03-12 20:02:00,
2013-03-12 15:12:00,56.0,40.0,1.80,West,279,0.0,8.0,55,0.00,,,0.17,,2013-03-12 20:12:00,
2013-03-12 15:22:00,56.0,37.0,3.37,WSW,238,1.0,7.0,49,0.00,,,0.04,,2013-03-12 20:22:00,
2013-03-12 15:32:00,57.0,38.0,3.30,WNW,286,4.0,12.0,48,0.00,,,0.04,,2013-03-12 20:32:00,
2013-03-12 15:42:00,57.0,38.0,3.30,WNW,286,4.0,12.0,48,0.00,,,0.04,,2013-03-12 20:42:00,
2013-03-12 15:53:00,56.0,37.0,3.30,WNW,292,3.0,10.0,49,0.00,,,0.04,,2013-03-12 20:53:00,
2013-03-12 16:02:00,57.0,38.0,3.30,West,265,2.0,7.0,49,0.00,,,0.04,,2013-03-12 21:02:00,
2013-03-12 16:12:00,57.0,38.0,3.30,West,265,2.0,7.0,49,0.00,,,0.04,,2013-03-12 21:12:00,
2013-03-12 16:22:00,58.0,40.0,3.30,ENE,65,0.0,6.0,51,0.00,,,0.00,,2013-03-12 21:22:00,
2013-03-12 16:32:00,59.0,37.0,3.30,WSW,247,1.0,7.0,44,0.00,,,0.00,,2013-03-12 21:32:00,
2013-03-12 16:43:00,59.0,37.0,3.30,WSW,247,1.0,7.0,44,0.00,,,0.00,,2013-03-12 21:43:00,
2013-03-12 16:52:00,57.0,36.0,3.30,NW,321,3.0,7.0,45,0.00,,,0.00,,2013-03-12 21:52:00,
2013-03-12 17:02:00,58.0,38.0,3.30,SSW,204,0.0,4.0,47,0.00,,,0.00,,2013-03-12 22:02:00,
2013-03-12 17:12:00,58.0,38.0,3.30,SSW,204,0.0,4.0,47,0.00,,,0.00,,2013-03-12 22:12:00,
2013-03-12 17:22:00,59.0,38.0,3.30,WSW,248,1.0,3.0,45,0.00,,,0.00,,2013-03-12 22:22:00,
2013-03-12 17:33:00,58.0,36.0,3.30,WNW,294,1.0,7.0,43,0.00,,,0.00,,2013-03-12 22:33:00,
2013-03-12 17:42:00,58.0,36.0,3.30,WNW,294,1.0,7.0,43,0.00,,,0.00,,2013-03-12 22:42:00,
2013-03-12 17:53:00,57.0,36.0,3.30,WSW,245,0.0,5.0,45,0.00,,,0.00,,2013-03-12 22:53:00,
2013-03-12 18:02:00,56.0,37.0,3.36,West,266,0.0,5.0,48,0.00,,,0.00,,2013-03-12 23:02:00,
2013-03-12 18:12:00,56.0,37.0,3.36,West,266,0.0,5.0,48,0.00,,,0.00,,2013-03-12 23:12:00,
2013-03-12 18:22:00,54.0,34.0,3.30,NW,313,3.0,7.0,47,0.00,,,0.00,,2013-03-12 23:22:00,
2013-03-12 18:34:00,53.0,35.0,3.30,West,269,1.0,4.0,51,0.00,,,0.00,,2013-03-12 23:34:00,
2013-03-12 18:43:00,53.0,35.0,3.30,West,269,1.0,4.0,51,0.00,,,0.00,,2013-03-12 23:43:00,
2013-03-12 18:52:00,52.0,35.0,3.30,West,269,0.0,4.0,53,0.00,,,0.00,,2013-03-12 23:52:00,
2013-03-12 19:02:00,50.0,34.0,3.30,WNW,286,1.0,4.0,54,0.00,,,0.00,,2013-03-13 00:02:00,
2013-03-12 19:12:00,50.0,34.0,3.30,WNW,286,1.0,4.0,54,0.00,,,0.00,,2013-03-13 00:12:00,
2013-03-12 19:23:00,50.0,36.0,3.30,WNW,286,0.0,0.0,59,0.00,,,0.00,,2013-03-13 00:23:00,
2013-03-12 19:33:00,48.0,34.0,3.30,WNW,286,0.0,0.0,59,0.00,,,0.00,,2013-03-13 00:33:00,
2013-03-12 19:42:00,48.0,34.0,3.30,WNW,286,0.0,0.0,59,0.00,,,0.00,,2013-03-13 00:42:00,
2013-03-12 19:53:00,47.0,35.0,3.10,WNW,286,0.0,0.0,63,0.00,,,0.00,,2013-03-13 00:53:00,
2013-03-12 20:02:00,46.0,34.0,26.78,WNW,286,0.0,0.0,63,0.00,,,0.00,,2013-03-13 01:02:00,
2013-03-12 20:12:00,46.0,34.0,26.78,WNW,286,0.0,0.0,63,0.00,,,0.00,,2013-03-13 01:12:00,
2013-03-12 20:22:00,45.0,34.0,3.30,WNW,286,0.0,0.0,64,0.00,,,0.00,,2013-03-13 01:22:00,
2013-03-12 20:32:00,44.0,33.0,17.48,WNW,286,0.0,0.0,65,0.00,,,0.00,,2013-03-13 01:32:00,
2013-03-12 20:42:00,44.0,33.0,17.48,WNW,286,0.0,0.0,65,0.00,,,0.00,,2013-03-13 01:42:00,
2013-03-12 20:53:00,43.0,33.0,-100.00,WNW,286,0.0,0.0,67,0.00,,,0.00,,2013-03-13 01:53:00,
2013-03-12 21:02:00,42.0,32.0,27.45,WNW,286,0.0,0.0,68,0.00,,,0.00,,2013-03-13 02:02:00,
2013-03-12 21:12:00,42.0,32.0,27.45,WNW,286,0.0,0.0,68,0.00,,,0.00,,2013-03-13 02:12:00,
2013-03-12 21:22:00,41.0,32.0,-100.00,WNW,286,0.0,0.0,69,0.00,,,0.00,,2013-03-13 02:22:00,
2013-03-12 21:32:00,41.0,32.0,-100.00,WNW,286,0.0,0.0,71,0.00,,,0.00,,2013-03-13 02:32:00,
2013-03-12 21:42:00,41.0,32.0,-100.00,WNW,286,0.0,0.0,71,0.00,,,0.00,,2013-03-13 02:42:00,
2013-03-12 21:52:00,40.0,32.0,18.65,WNW,286,0.0,0.0,72,0.00,,,0.00,,2013-03-13 02:52:00,
2013-03-12 22:02:00,40.0,32.0,17.55,WNW,286,0.0,0.0,72,0.00,,,0.00,,2013-03-13 03:02:00,
2013-03-12 22:12:00,40.0,32.0,17.55,WNW,286,0.0,0.0,72,0.00,,,0.00,,2013-03-13 03:12:00,
2013-03-12 22:22:00,40.0,31.0,3.42,WNW,286,0.0,0.0,71,0.00,,,0.00,,2013-03-13 03:22:00,
2013-03-12 22:32:00,39.0,31.0,17.22,WNW,286,0.0,0.0,72,0.00,,,0.00,,2013-03-13 03:32:00,
2013-03-12 22:42:00,39.0,31.0,17.22,WNW,286,0.0,0.0,72,0.00,,,0.00,,2013-03-13 03:42:00,
2013-03-12 22:53:00,39.0,31.0,3.30,WNW,286,0.0,0.0,73,0.00,,,0.00,,2013-03-13 03:53:00,
2013-03-12 23:13:00,39.0,31.0,3.30,WNW,286,0.0,0.0,73,0.00,,,0.00,,2013-03-13 04:13:00,
2013-03-12 23:22:00,38.0,30.0,3.30,WNW,286,0.0,0.0,73,0.00,,,0.00,,2013-03-13 04:22:00,
2013-03-12 23:32:00,38.0,30.0,3.30,WNW,286,0.0,0.0,74,0.00,,,0.00,,2013-03-13 04:32:00,
2013-03-12 23:42:00,38.0,30.0,3.30,WNW,286,0.0,0.0,74,0.00,,,0.00,,2013-03-13 04:42:00,
2013-03-12 23:53:00,38.0,31.0,3.30,WNW,286,0.0,0.0,75,0.00,,,0.00,,2013-03-13 04:53:00,